Location: Unspecified
(0.0000°N, 0.0000°E)
Time: 01:47:22
(UTC+00:00)

Explorer 11/Cluster Stage 4 - Pass Details

Date: 22 April 2026
Orbit: 463 x 1174 km, 28.8° (Epoch: 15 May)

Event Time Altitude Azimuth Distance (km) Brightness Sun altitude
Exits shadow 05:27:28 - 266° (W) 1,784 7.8 -7.6°
Reaches altitude 10° 05:27:38 10° 268° (W) 1,726 7.7 -7.6°
Maximum altitude 05:31:12 32° 332° (NNW) 964 6.9 -6.7°
Drops below altitude 10° 05:35:20 10° 37° (NE) 2,013 9.5 -5.7°
Sets 05:38:08 0° 46° (NE) 3,054 10.7 -5.0°
